[[{"header":{"parameterUnit":"m.s-1","parameterCategory":1,"la1":30.2991,"la2":30.254,"lo1":-89.0895,"lo2":-89.0444,"dy":0.0017,"dx":0.0017,"nx":28,"ny":28,"refTime":"2024-11-26T09:00:00:Z","depth":0,"parameterNumber":2,"parameterNumberName":"U-component_of_WINDS"},"data":[0,0,0,0,0,0,0,0,0,0,0,0,0,0,0,0,0,0,0,0,0,0,0,0,0,0,0,0,0,0,0,0,0,0,0,0,0,0,0,0,0,0,0,0,0,0,0,0,0,0,0,0,0,0,0,0,0,0,-0.6111,-0.6111,0,-0.6077,-0.6076,-0.6076,-0.6042,-0.6042,-0.6041,-0.6041,-0.6005,-0.6004,-0.6004,0,0,0,0,0,0,0,0,0,0,0,0,0,-0.6146,-0.6145,-0.6111,-0.6111,-0.611,-0.6077,-0.6076,-0.6076,-0.6042,-0.6042,-0.6041,-0.604,-0.6005,-0.6004,-0.6004,0,0,0,0,0,0,0,0,0,0,0,0,0,-0.6123,-0.6145,-0.6111,-0.6089,-0.6087,-0.6077,-0.6076,-0.6076,-0.6042,-0.6041,-0.6041,-0.604,-0.6005,-0.6004,-0.6003,-0.6012,0,0,-0.6001,-0.6001,0,0,0,0,0,0,0,0,-0.6124,-0.6122,-0.6093,-0.6091,-0.6088,-0.6063,-0.6075,-0.6054,-0.6042,-0.6059,-0.6041,-0.604,-0.6025,-0.6022,-0.6017,-0.601,-0.6009,-0.6001,-0.6,-0.6,-0.6,0,0,0,0,0,0,0,-0.6126,-0.6123,-0.6097,-0.6093,-0.609,-0.6081,-0.6077,-0.6071,-0.6046,-0.6058,-0.6055,-0.6052,-0.6023,-0.6018,-0.6016,-0.6008,-0.6001,-0.6,-0.6,-0.5999,-0.6005,-0.6006,0,0,0,0,0,0,-0.6131,-0.6125,-0.6099,-0.6096,-0.6105,-0.6081,-0.6076,-0.6072,-0.6046,-0.6041,-0.6052,-0.605,-0.602,-0.6017,-0.6015,-0.6022,-0.6,-0.5999,-0.5999,-0.6005,-0.6005,-0.6006,0,0,0,0,0,0,-0.6132,-0.6129,-0.61,-0.611,-0.6105,-0.6081,-0.6076,-0.6071,-0.6066,-0.6042,-0.6037,-0.6052,-0.6019,-0.6016,-0.6013,-0.602,-0.5999,-0.5998,-0.6004,-0.6005,-0.6006,-0.6038,0,0,0,0,0,0,-0.6133,-0.613,-0.6133,-0.611,-0.6105,-0.6099,-0.6077,-0.6071,-0.6065,-0.6062,-0.604,-0.6036,-0.6018,-0.6014,-0.6012,-0.6019,-0.5998,-0.6003,-0.6004,-0.6005,-0.6036,-0.604,-0.6043,0,0,0,0,0,-0.6134,-0.6143,-0.6133,-0.613,-0.6109,-0.61,-0.6097,-0.6077,-0.6066,-0.6069,-0.6053,-0.6036,-0.602,-0.6014,-0.6011,-0.6018,-0.6002,-0.6004,-0.6005,-0.6034,-0.6039,-0.6043,0,0,0,0,0,0,-0.6167,-0.614,-0.6128,-0.613,-0.6118,-0.6094,-0.6097,-0.6082,-0.6072,-0.607,-0.6045,-0.604,-0.604,-0.6029,-0.6022,-0.6024,-0.6009,-0.601,-0.6032,-0.6036,-0.6039,-0.6042,-0.5997,0,0,0,0,0,-0.6175,-0.617,-0.6146,-0.615,-0.6144,-0.6122,-0.6117,-0.6103,-0.6088,-0.6083,-0.6067,-0.6053,-0.6045,-0.604,-0.6031,-0.6034,-0.6028,-0.6037,-0.6041,-0.6044,-0.6045,-0.6045,-0.6048,-0.6011,-0.6011,-0.6011,0,0,-0.619,-0.6175,-0.6173,-0.6156,-0.6145,-0.614,-0.6118,-0.6114,-0.6109,-0.6082,-0.6078,-0.6066,-0.6049,-0.6049,-0.6048,-0.604,-0.6054,-0.6046,-0.6048,-0.6048,-0.6047,-0.605,-0.6054,-0.6012,-0.6012,-0.6011,0,0,-0.6216,-0.6204,-0.6205,-0.6194,-0.6177,-0.6162,-0.6162,-0.6141,-0.6132,-0.6127,-0.6106,-0.6101,-0.6087,-0.6076,-0.6068,-0.6089,-0.6073,-0.6087,-0.6105,-0.6105,-0.6108,-0.6111,-0.6117,-0.612,-0.6088,-0.6088,-0.6088,0,-0.6237,-0.6229,-0.6208,-0.6205,-0.6198,-0.6173,-0.6174,-0.6164,-0.6145,-0.614,-0.6131,-0.6113,-0.61,-0.6096,-0.6101,-0.6096,-0.6095,-0.6089,-0.611,-0.6112,-0.6114,-0.612,-0.6122,-0.6089,-0.6089,-0.6089,-0.6089,0,-0.6256,-0.6251,-0.6254,-0.6236,-0.6229,-0.6229,-0.6207,-0.6202,-0.6188,-0.6174,-0.6169,-0.6153,-0.6139,-0.6138,-0.6124,-0.6132,-0.6127,-0.6114,-0.6098,-0.6119,-0.6125,-0.6127,-0.6092,-0.6091,-0.6091,-0.609,0,0,-0.6301,-0.6271,-0.6273,-0.6264,-0.6243,-0.6238,-0.6236,-0.6223,-0.622,-0.6207,-0.6204,-0.6193,-0.618,-0.6172,-0.6157,-0.6157,-0.6173,-0.6144,-0.6143,-0.6149,-0.618,-0.619,-0.6193,-0.6163,-0.6163,-0.6164,-0.6181,0,-0.6323,-0.6317,-0.6298,-0.6298,-0.6293,-0.6269,-0.6267,-0.6253,-0.624,-0.6232,-0.6217,-0.6209,-0.6194,-0.6189,-0.6188,-0.6172,-0.6179,-0.617,-0.6159,-0.6159,-0.6164,-0.6196,-0.6206,-0.6223,-0.6183,-0.6184,-0.6184,0,-0.6347,-0.6336,-0.6336,-0.6315,-0.6312,-0.631,-0.6296,-0.629,-0.6274,-0.6264,-0.6254,-0.6237,-0.6233,-0.6218,-0.6211,-0.6205,-0.6199,-0.6191,-0.6191,-0.6189,-0.6172,-0.6194,-0.6229,-0.6231,-0.6187,-0.6187,-0.6187,0,-0.638,-0.6365,-0.6362,-0.6356,-0.6331,-0.633,-0.632,-0.6303,-0.6296,-0.6284,-0.628,-0.6267,-0.626,-0.6251,-0.6231,-0.6222,-0.6225,-0.6209,-0.6216,-0.6217,-0.6218,-0.6218,-0.6252,-0.6215,-0.6215,-0.6215,-0.6215,0,-0.6405,-0.6406,-0.6377,-0.6375,-0.6375,-0.6352,-0.6352,-0.634,-0.6325,-0.632,-0.6298,-0.6294,-0.6268,-0.6261,-0.6245,-0.6241,-0.6238,-0.6229,-0.6225,-0.6231,-0.6232,-0.6226,-0.6224,-0.6216,-0.6216,-0.6216,-0.6215,0,-0.6441,-0.6422,-0.6418,-0.6394,-0.6389,-0.6389,-0.6369,-0.6366,-0.6351,-0.6345,-0.6343,-0.6319,-0.6309,-0.6288,-0.6272,-0.6261,-0.6261,-0.6254,-0.6267,-0.6264,-0.6272,-0.6271,-0.6303,-0.6306,-0.6268,-0.6269,-0.6269,0,-0.6459,-0.6459,-0.6436,-0.6431,-0.6421,-0.6414,-0.6407,-0.6385,-0.6378,-0.636,-0.6359,-0.6347,-0.6337,-0.6322,-0.6303,-0.6291,-0.6282,-0.6294,-0.628,-0.6286,-0.6282,-0.6282,-0.6281,-0.6297,-0.6298,-0.6298,-0.6299,0,-0.6492,-0.6482,-0.6473,-0.6461,-0.6453,-0.6442,-0.643,-0.6427,-0.6402,-0.6396,-0.6385,-0.6377,-0.6361,-0.6349,-0.6334,-0.6322,-0.6306,-0.6303,-0.6304,-0.631,-0.6317,-0.6313,-0.6274,-0.6302,-0.6302,-0.6302,-0.6302,-0.6301,-0.6519,-0.6517,-0.65,-0.6491,-0.6479,-0.6468,-0.6465,-0.6449,-0.644,-0.6426,-0.6413,-0.6403,-0.6386,-0.6364,-0.6353,-0.6345,-0.6337,-0.6339,-0.6339,-0.634,-0.6342,-0.6319,-0.6343,-0.6342,-0.6342,-0.6342,-0.6342,0,-0.655,-0.6538,-0.6529,-0.6513,-0.6505,-0.6491,-0.6477,-0.6471,-0.6463,-0.6449,-0.6439,-0.6427,-0.6415,-0.6395,-0.6382,-0.6379,-0.6371,-0.6376,-0.6376,-0.6373,-0.635,-0.635,-0.6383,-0.6383,-0.6383,-0.6383,-0.6383,-0.6383,-0.6565,-0.6562,-0.655,-0.654,-0.6528,-0.6519,-0.6512,-0.6501,-0.6489,-0.6477,-0.6467,-0.6454,-0.6438,-0.6423,-0.6411,-0.6406,-0.6401,-0.6409,-0.6401,-0.6379,-0.6375,-0.6372,-0.6372,-0.6408,-0.6408,-0.6424,-0.6425,-0.6425]},{"header":{"parameterUnit":"m.s-1","parameterCategory":1,"la1":30.2991,"la2":30.254,"lo1":-89.0895,"lo2":-89.0444,"dy":0.0017,"dx":0.0017,"nx":28,"ny":28,"refTime":"2024-11-26T09:00:00:Z","depth":0,"parameterNumber":3,"parameterNumberName":"V-component_of_WINDS"},"data":[0,0,0,0,0,0,0,0,0,0,0,0,0,0,0,0,0,0,0,0,0,0,0,0,0,0,0,0,0,0,0,0,0,0,0,0,0,0,0,0,0,0,0,0,0,0,0,0,0,0,0,0,0,0,0,0,0,0,-4.2388,-4.2389,0,-4.2488,-4.2489,-4.249,-4.2467,-4.2465,-4.2464,-4.2462,-4.2559,-4.2563,-4.2567,0,0,0,0,0,0,0,0,0,0,0,0,0,-4.2174,-4.2179,-4.2388,-4.2389,-4.2391,-4.2488,-4.2489,-4.249,-4.2468,-4.2465,-4.2463,-4.2461,-4.2557,-4.2563,-4.2568,0,0,0,0,0,0,0,0,0,0,0,0,0,-4.227,-4.218,-4.2388,-4.2391,-4.2392,-4.2487,-4.2489,-4.2491,-4.2468,-4.2465,-4.2463,-4.246,-4.2556,-4.2562,-4.2568,-4.2665,0,0,-4.2588,-4.2591,0,0,0,0,0,0,0,0,-4.2265,-4.2278,-4.2389,-4.2391,-4.2393,-4.2462,-4.2449,-4.2549,-4.2469,-4.2439,-4.2462,-4.2459,-4.2529,-4.2537,-4.2562,-4.2669,-4.2674,-4.2589,-4.2593,-4.2596,-4.2597,0,0,0,0,0,0,0,-4.2258,-4.2273,-4.2427,-4.2391,-4.2393,-4.2386,-4.2397,-4.2468,-4.2498,-4.2442,-4.244,-4.2453,-4.2529,-4.2556,-4.2564,-4.2675,-4.2589,-4.2594,-4.2598,-4.2601,-4.2868,-4.2871,0,0,0,0,0,0,-4.2251,-4.2268,-4.2424,-4.243,-4.2321,-4.2393,-4.2404,-4.2443,-4.2498,-4.2503,-4.2455,-4.2451,-4.2546,-4.2556,-4.2567,-4.2684,-4.2596,-4.2602,-4.2605,-4.2864,-4.2868,-4.2872,0,0,0,0,0,0,-4.2246,-4.2265,-4.242,-4.2349,-4.2368,-4.2399,-4.2443,-4.2446,-4.2473,-4.2508,-4.2512,-4.2477,-4.2544,-4.2558,-4.2641,-4.2687,-4.2605,-4.261,-4.2861,-4.2866,-4.287,-4.2919,0,0,0,0,0,0,-4.224,-4.2263,-4.2301,-4.235,-4.2372,-4.2494,-4.2446,-4.245,-4.2485,-4.2481,-4.253,-4.2535,-4.2543,-4.2632,-4.2648,-4.2695,-4.2616,-4.2857,-4.2863,-4.2868,-4.2913,-4.2925,-4.2935,0,0,0,0,0,-4.2232,-4.2309,-4.2303,-4.2322,-4.242,-4.2497,-4.2509,-4.2518,-4.2489,-4.2526,-4.2549,-4.2533,-4.268,-4.2641,-4.2658,-4.2708,-4.2854,-4.2861,-4.2868,-4.2909,-4.2923,-4.2934,0,0,0,0,0,0,-4.2262,-4.2316,-4.2309,-4.2405,-4.2447,-4.2493,-4.254,-4.2533,-4.2582,-4.2576,-4.2584,-4.2596,-4.2681,-4.2703,-4.2658,-4.2805,-4.2762,-4.2774,-4.2787,-4.2801,-4.2811,-4.2804,-4.2621,0,0,0,0,0,-4.2281,-4.234,-4.2382,-4.2462,-4.2484,-4.2509,-4.2542,-4.2546,-4.2589,-4.2606,-4.2635,-4.2676,-4.2731,-4.2767,-4.282,-4.2917,-4.2927,-4.296,-4.2971,-4.2979,-4.2988,-4.3042,-4.3057,-4.2895,-4.2895,-4.2895,0,0,-4.2318,-4.2354,-4.239,-4.2469,-4.2502,-4.2562,-4.2524,-4.2588,-4.2632,-4.2615,-4.2696,-4.2719,-4.2765,-4.2856,-4.2897,-4.2877,-4.3035,-4.2988,-4.2995,-4.2999,-4.305,-4.3066,-4.3079,-4.29,-4.2899,-4.2898,0,0,-4.2416,-4.245,-4.2521,-4.2555,-4.2607,-4.2623,-4.264,-4.2688,-4.2703,-4.2785,-4.2774,-4.2826,-4.2921,-4.2955,-4.2984,-4.3098,-4.3086,-4.3115,-4.317,-4.3222,-4.3235,-4.3246,-4.3287,-4.3301,-4.3124,-4.3125,-4.3125,0,-4.2455,-4.2546,-4.2557,-4.2624,-4.2659,-4.2649,-4.2721,-4.2753,-4.2818,-4.2842,-4.2819,-4.2939,-4.297,-4.3068,-4.3097,-4.3121,-4.314,-4.3109,-4.3233,-4.3244,-4.3255,-4.3293,-4.3309,-4.3128,-4.3127,-4.3127,-4.3127,0,-4.2592,-4.2656,-4.2707,-4.2772,-4.2813,-4.2882,-4.2902,-4.2942,-4.2943,-4.2962,-4.3045,-4.3082,-4.3142,-4.3166,-4.3167,-4.3266,-4.3252,-4.3231,-4.3188,-4.3273,-4.331,-4.3325,-4.3132,-4.3131,-4.313,-4.3129,0,0,-4.271,-4.2783,-4.2802,-4.2832,-4.2889,-4.2938,-4.3006,-4.3067,-4.3101,-4.3147,-4.3204,-4.3286,-4.3268,-4.3301,-4.3306,-4.3351,-4.3439,-4.3325,-4.3326,-4.3345,-4.3551,-4.3566,-4.3583,-4.3432,-4.3435,-4.3437,-4.3547,0,-4.2813,-4.2936,-4.2949,-4.3057,-4.3116,-4.3108,-4.3168,-4.3209,-4.3228,-4.328,-4.3301,-4.3359,-4.3331,-4.3351,-4.3396,-4.3419,-4.3481,-4.3412,-4.3484,-4.3486,-4.3472,-4.3602,-4.3618,-4.3719,-4.3561,-4.3563,-4.3565,0,-4.295,-4.3002,-4.3117,-4.3168,-4.3193,-4.3246,-4.3304,-4.3354,-4.34,-4.3412,-4.3451,-4.345,-4.3519,-4.3475,-4.3571,-4.3523,-4.3554,-4.357,-4.3574,-4.358,-4.353,-4.3611,-4.3752,-4.3767,-4.3588,-4.3586,-4.3584,0,-4.3024,-4.3123,-4.3205,-4.3232,-4.3292,-4.333,-4.3357,-4.3401,-4.3437,-4.3487,-4.3511,-4.3568,-4.3599,-4.3643,-4.3657,-4.3624,-4.3752,-4.3709,-4.3762,-4.3762,-4.3789,-4.3787,-4.3935,-4.381,-4.3809,-4.3809,-4.3809,0,-4.3138,-4.3208,-4.324,-4.329,-4.3369,-4.3384,-4.3461,-4.3485,-4.3525,-4.3579,-4.3576,-4.3626,-4.3642,-4.3696,-4.3707,-4.3784,-4.3798,-4.3808,-4.381,-4.3809,-4.3807,-4.3828,-4.3821,-4.3813,-4.3812,-4.3811,-4.3811,0,-4.3233,-4.3258,-4.3347,-4.3398,-4.3413,-4.3469,-4.3512,-4.356,-4.358,-4.3649,-4.3666,-4.3696,-4.3759,-4.3778,-4.3852,-4.386,-4.3951,-4.3947,-4.3936,-4.3936,-4.3988,-4.3983,-4.4155,-4.4178,-4.4037,-4.4039,-4.404,0,-4.3304,-4.3359,-4.3417,-4.3454,-4.3483,-4.3543,-4.3581,-4.3597,-4.3637,-4.3695,-4.3736,-4.3799,-4.3849,-4.395,-4.3978,-4.4035,-4.4032,-4.4089,-4.404,-4.4037,-4.4033,-4.4029,-4.4034,-4.4097,-4.4098,-4.41,-4.4101,0,-4.3426,-4.3436,-4.3492,-4.3554,-4.36,-4.3648,-4.3694,-4.3724,-4.3747,-4.3792,-4.3858,-4.3897,-4.3975,-4.4037,-4.4096,-4.4122,-4.4115,-4.4116,-4.4131,-4.4129,-4.4121,-4.4126,-4.396,-4.4111,-4.411,-4.411,-4.4109,-4.4109,-4.3511,-4.356,-4.3609,-4.3672,-4.371,-4.3754,-4.3802,-4.3829,-4.3885,-4.3951,-4.3957,-4.4027,-4.4073,-4.4152,-4.4181,-4.4236,-4.4219,-4.4241,-4.4247,-4.4252,-4.4256,-4.4113,-4.4246,-4.4246,-4.4246,-4.4246,-4.4245,0,-4.3633,-4.3666,-4.3723,-4.379,-4.384,-4.3832,-4.3883,-4.3924,-4.3987,-4.4032,-4.4083,-4.4158,-4.4219,-4.4253,-4.4313,-4.435,-4.4349,-4.4366,-4.4362,-4.4369,-4.4268,-4.4248,-4.4366,-4.4366,-4.4366,-4.4366,-4.4366,-4.4366,-4.3703,-4.3785,-4.3801,-4.3902,-4.3933,-4.4004,-4.4034,-4.4074,-4.411,-4.4195,-4.4247,-4.4269,-4.4309,-4.4373,-4.4428,-4.4436,-4.4458,-4.4477,-4.4484,-4.4388,-4.4376,-4.4364,-4.4346,-4.4482,-4.4482,-4.458,-4.4581,-4.4582]}]]